Haines, AK

10:16 AM AKDT on April 28, 2017 (GMT -0800)
Haines

Weather History for PAHN - April, 2013

Change the Weather History Date:

Friday, April 5, 2013

  Actual Average Record
Temperature  
Mean Temperature 28 °F -  
Max Temperature 34 °F 41 °F 56 °F (1980)
Min Temperature 23 °F 29 °F 21 °F (2007)
Degree Days  
Heating Degree Days 36    
Moisture  
Dew Point 5 °F    
Average Humidity 37    
Maximum Humidity 44    
Minimum Humidity 31    
Precipitation  
Precipitation 0.00 in - - ()
Sea Level Pressure  
Sea Level Pressure 29.73 in    
Wind  
Wind Speed 9 mph (WNW)    
Max Wind Speed 16 mph    
Max Gust Speed 22 mph    
Visibility 10 miles    
Events      
Averages and records for this station are not official NWS values.
T = Trace of Precipitation, MM = Missing Value Source: NWS Daily Summary

Daily Weather History Graph

Daily Weather History Graph

Search for Another Location

Airport or City:

Trip Planner

Search our weather history database for the weather conditions in past years. The results will help you decide how hot, cold, wet, or windy it might be!

Date:

Astronomy

Apr. 05, 2013 Rise Set
Actual Time 6:15 AM AKDT 7:55 PM AKDT
Civil Twilight 5:32 AM AKDT 8:38 PM AKDT
Nautical Twilight 4:39 AM AKDT 9:32 PM AKDT
Astronomical Twilight 3:35 AM AKDT 10:37 PM AKDT
Moon 4:31 AM AKDT (4/5) 2:29 PM AKDT (4/5)
Length of Visible Light 15h 05m
Length of Day
13h 39m
Waning Crescent, 22% of the Moon is Illuminated
Apr 5
Waning Crescent
Apr 10
New
Apr 18
First Quarter
Apr 25
Full
May 2
Last Quarter

Hourly Weather History & Observations

Time (AKDT) Temp. Windchill Dew Point Humidity Pressure Visibility Wind Dir Wind Speed Gust Speed Precip Events Conditions
12:54 AM 27.0 °F 16.7 °F 3.0 °F 36% 29.87 in 10.0 mi WNW 11.5 mph - N/A   Partly Cloudy
1:54 AM 26.1 °F 16.2 °F 5.0 °F 41% 29.86 in 10.0 mi WNW 10.4 mph - N/A   Clear
2:54 AM 26.1 °F 16.8 °F 3.0 °F 37% 29.85 in 10.0 mi NW 9.2 mph - N/A   Clear
3:54 AM 25.0 °F 15.5 °F 3.9 °F 41% 29.83 in 10.0 mi WNW 9.2 mph - N/A   Clear
4:54 AM 24.1 °F 15.2 °F 3.9 °F 42% 29.82 in 10.0 mi WNW 8.1 mph - N/A   Clear
5:54 AM 24.1 °F 15.2 °F 3.0 °F 40% 29.80 in 10.0 mi NW 8.1 mph - N/A   Clear
6:54 AM 23.0 °F 17.0 °F 3.9 °F 44% 29.79 in 10.0 mi NW 4.6 mph - N/A   Clear
7:54 AM 24.1 °F 15.2 °F 3.0 °F 40% 29.78 in 10.0 mi WNW 8.1 mph - N/A   Clear
8:54 AM 25.0 °F 17.1 °F 5.0 °F 43% 29.76 in 10.0 mi WNW 6.9 mph - N/A   Clear
9:54 AM 28.0 °F 20.0 °F 3.9 °F 36% 29.75 in 10.0 mi WSW 8.1 mph - N/A   Clear
10:54 AM 28.9 °F 20.4 °F 3.0 °F 33% 29.73 in 10.0 mi West 9.2 mph - N/A   Clear
11:54 AM 30.9 °F 22.8 °F 5.0 °F 33% 29.72 in 10.0 mi West 9.2 mph - N/A   Clear
12:54 PM 32.0 °F 24.8 °F 5.0 °F 32% 29.70 in 10.0 mi WSW 8.1 mph - N/A   Clear
1:54 PM 32.0 °F 25.6 °F 5.0 °F 32% 29.69 in 10.0 mi SW 6.9 mph - N/A   Clear
2:54 PM 33.1 °F 28.7 °F 5.0 °F 31% 29.68 in 10.0 mi Variable 4.6 mph - N/A   Clear
3:54 PM 33.1 °F 30.0 °F 6.1 °F 32% 29.67 in 10.0 mi Variable 3.5 mph - N/A   Clear
4:54 PM 33.1 °F 28.7 °F 8.1 °F 35% 29.66 in 10.0 mi South 4.6 mph - N/A   Clear
5:54 PM 34.0 °F 29.8 °F 7.0 °F 32% 29.65 in 10.0 mi West 4.6 mph - N/A   Clear
6:54 PM 32.0 °F 24.2 °F 7.0 °F 35% 29.65 in 10.0 mi NW 9.2 mph - N/A   Clear
7:54 PM 30.0 °F 22.4 °F 7.0 °F 38% 29.64 in 10.0 mi NW 8.1 mph - N/A   Clear
8:54 PM 28.9 °F 19.8 °F 8.1 °F 41% 29.65 in 10.0 mi WNW 10.4 mph - N/A   Clear
9:54 PM 28.0 °F 18.1 °F 7.0 °F 41% 29.64 in 10.0 mi WNW 11.5 mph - N/A   Overcast
10:54 PM 27.0 °F 15.2 °F 7.0 °F 43% 29.64 in 10.0 mi WNW 15.0 mph 21.9 mph N/A   Overcast
11:54 PM 27.0 °F 14.7 °F 6.1 °F 41% 29.63 in 10.0 mi WNW 16.1 mph - N/A   Overcast